Zurück zum Katalog

STARLINK-32284

AktivKommunikationVLEO
NORAD 61005·PAYLOAD·🇺🇸 United States

Gestartet Sep 5, 2024 von Cape Canaveral Space Force Station

Loading…

Nächste Überflüge (nächste 24 Stunden)

TLE

AktuellSource: CelesTrak SupGP

Epoche: Sep 15, 2026, 03:11 UTC

1 61005C 24158R   26258.13312500 -.00019070  00000+0 -56335-3 0  2581
2 61005  53.1573 262.4638 0001417  85.4248 144.2883 15.34403973    13

Verfolge STARLINK-32284 in Echtzeit mit AllMySat

Download on the App Store